Private Wetterstation Wechselburg
Wetterdaten: Sonntag, 19.02.2012
Datum Zeit Temp. +2m Bodentemp. Temp.+5cm Temp. Wind Windchill X Diff Temp. Feuchte +2m Feuchte +5cm Sonnenschein Luftdruck Regen Wind Richtung Richtung Sonnenschein UV Taupunkt Windchill Windben
19.02.2012 00:00 5,7 C 5,6 C 5,3 C 5,5 C 5,2 C 0,0 C 83 % 86 % 0 % 1012,9 hPa 0,0 l/m 5,1 km/h (1 Bft) SO 135 0 min 0,0 UV-I 3,0 C 4,3 C 11,7 km/h (2 Bft)
19.02.2012 00:13 5,9 C 5,6 C 5,4 C 5,5 C 4,8 C 0,0 C 83 % 86 % 0 % 1012,9 hPa 0,0 l/m 6,3 km/h (2 Bft) S-SO 157 0 min 0,0 UV-I 3,2 C 3,4 C 18,3 km/h (3 Bft)
19.02.2012 00:14 5,9 C 5,6 C 5,4 C 5,5 C 4,8 C 0,0 C 83 % 86 % 0 % 1012,9 hPa 0,0 l/m 6,3 km/h (2 Bft) S-SO 157 0 min 0,0 UV-I 3,2 C 3,4 C 18,3 km/h (3 Bft)
19.02.2012 00:18 5,9 C 5,6 C 5,6 C 5,5 C 4,7 C 0,0 C 83 % 86 % 0 % 1012,9 hPa 0,0 l/m 6,8 km/h (2 Bft) SO 135 0 min 0,0 UV-I 3,2 C 3,1 C 15,1 km/h (3 Bft)
19.02.2012 00:25 5,9 C 5,6 C 5,6 C 5,5 C 4,8 C 0,0 C 83 % 86 % 0 % 1012,6 hPa 0,0 l/m 6,4 km/h (2 Bft) S-SO 157 0 min 0,0 UV-I 3,2 C 3,4 C 18,0 km/h (3 Bft)
19.02.2012 00:30 6,0 C 5,6 C 5,6 C 5,6 C 4,8 C 0,0 C 83 % 86 % 0 % 1012,6 hPa 0,0 l/m 6,6 km/h (2 Bft) S-SO 157 0 min 0,0 UV-I 3,3 C 3,3 C 19,0 km/h (3 Bft)
19.02.2012 00:35 6,0 C 5,6 C 5,6 C 5,5 C 4,6 C 0,0 C 83 % 86 % 0 % 1012,6 hPa 0,0 l/m 7,2 km/h (2 Bft) S 180 0 min 0,0 UV-I 3,3 C 2,9 C 12,4 km/h (3 Bft)
19.02.2012 00:40 6,0 C 5,6 C 5,6 C 5,5 C 4,6 C 0,0 C 82 % 86 % 0 % 1012,4 hPa 0,0 l/m 7,7 km/h (2 Bft) S 180 0 min 0,0 UV-I 3,2 C 2,7 C 6,6 km/h (2 Bft)
19.02.2012 00:45 6,0 C 5,6 C 5,6 C 5,5 C 4,6 C 0,0 C 82 % 86 % 0 % 1012,4 hPa 0,0 l/m 8,0 km/h (2 Bft) S 180 0 min 0,0 UV-I 3,2 C 2,7 C 7,4 km/h (2 Bft)
19.02.2012 00:50 6,0 C 5,6 C 5,6 C 5,6 C 4,7 C 0,0 C 82 % 86 % 0 % 1012,4 hPa 0,0 l/m 7,4 km/h (2 Bft) S 180 0 min 0,0 UV-I 3,2 C 2,9 C 8,2 km/h (2 Bft)
19.02.2012 00:55 6,0 C 5,6 C 5,5 C 5,6 C 4,9 C 0,0 C 82 % 86 % 0 % 1012,4 hPa 0,0 l/m 6,4 km/h (2 Bft) S 180 0 min 0,0 UV-I 3,2 C 3,5 C 5,8 km/h (2 Bft)
19.02.2012 01:00 5,9 C 5,6 C 5,5 C 5,5 C 4,7 C 0,0 C 83 % 86 % 0 % 1012,1 hPa 0,0 l/m 6,6 km/h (2 Bft) S-SO 157 0 min 0,0 UV-I 3,2 C 3,2 C 10,9 km/h (2 Bft)
19.02.2012 01:13 5,9 C 5,6 C 5,5 C 5,5 C 4,8 C 0,0 C 83 % 87 % 0 % 1012,1 hPa 0,0 l/m 5,3 km/h (1 Bft) O-NO 67 0 min 0,0 UV-I 3,2 C 3,7 C 6,0 km/h (2 Bft)
19.02.2012 01:20 5,9 C 5,7 C 5,5 C 5,5 C 4,8 C 0,0 C 84 % 87 % 0 % 1011,9 hPa 0,0 l/m 4,7 km/h (1 Bft) O 90 0 min 0,0 UV-I 3,4 C 4,0 C 6,8 km/h (2 Bft)
19.02.2012 01:25 5,9 C 5,7 C 5,5 C 5,5 C 4,6 C 0,0 C 84 % 87 % 0 % 1011,9 hPa 0,0 l/m 5,1 km/h (1 Bft) S 180 0 min 0,0 UV-I 3,4 C 3,6 C 4,3 km/h (1 Bft)
19.02.2012 01:30 5,8 C 5,7 C 5,5 C 5,3 C 4,4 C 0,0 C 84 % 88 % 0 % 1011,9 hPa 0,0 l/m 5,5 km/h (1 Bft) W-SW 247 0 min 0,0 UV-I 3,3 C 3,2 C 11,6 km/h (2 Bft)
19.02.2012 01:35 5,9 C 5,7 C 5,3 C 5,4 C 4,4 C 0,0 C 84 % 89 % 0 % 1011,9 hPa 0,0 l/m 5,5 km/h (1 Bft) SO 135 0 min 0,0 UV-I 3,4 C 3,2 C 4,7 km/h (1 Bft)
19.02.2012 01:40 5,9 C 5,7 C 5,3 C 5,3 C 4,2 C 0,0 C 84 % 89 % 0 % 1011,9 hPa 0,0 l/m 6,1 km/h (2 Bft) S-SW 202 0 min 0,0 UV-I 3,4 C 2,8 C 13,5 km/h (3 Bft)
19.02.2012 01:45 5,9 C 5,9 C 5,1 C 5,2 C 3,8 C 0,0 C 84 % 90 % 0 % 1011,9 hPa 0,0 l/m 7,6 km/h (2 Bft) S 180 0 min 0,0 UV-I 3,4 C 1,8 C 10,8 km/h (2 Bft)
19.02.2012 01:50 5,9 C 5,9 C 5,1 C 5,4 C 3,7 C 0,0 C 85 % 90 % 0 % 1011,9 hPa 0,0 l/m 8,2 km/h (2 Bft) S-SW 202 0 min 0,0 UV-I 3,6 C 1,6 C 8,9 km/h (2 Bft)
19.02.2012 01:55 5,9 C 6,0 C 5,1 C 5,4 C 3,6 C 0,0 C 85 % 91 % 0 % 1011,9 hPa 0,0 l/m 8,4 km/h (2 Bft) NO 45 0 min 0,0 UV-I 3,6 C 1,4 C 3,9 km/h (1 Bft)
19.02.2012 02:00 5,8 C 6,0 C 5,0 C 5,1 C 3,8 C 0,0 C 85 % 91 % 0 % 1011,4 hPa 0,0 l/m 7,6 km/h (2 Bft) SO 135 0 min 0,0 UV-I 3,5 C 1,8 C 5,0 km/h (1 Bft)
19.02.2012 02:13 5,7 C 6,1 C 4,8 C 5,1 C 3,8 C 0,0 C 86 % 92 % 0 % 1011,4 hPa 0,0 l/m 7,2 km/h (2 Bft) S 180 0 min 0,0 UV-I 3,5 C 2,0 C 10,6 km/h (2 Bft)
19.02.2012 02:20 5,6 C 6,1 C 4,8 C 5,2 C 3,6 C 0,0 C 86 % 92 % 0 % 1011,0 hPa 0,0 l/m 8,0 km/h (2 Bft) N-NW 337 0 min 0,0 UV-I 3,4 C 1,5 C 2,6 km/h (1 Bft)
19.02.2012 02:25 5,6 C 6,1 C 4,8 C 5,1 C 4,1 C 0,0 C 86 % 93 % 0 % 1011,0 hPa 0,0 l/m 5,8 km/h (2 Bft) SW 225 0 min 0,0 UV-I 3,4 C 2,8 C 5,1 km/h (1 Bft)
19.02.2012 02:30 5,6 C 6,1 C 4,7 C 5,1 C 4,1 C 0,0 C 86 % 93 % 0 % 1011,0 hPa 0,0 l/m 5,8 km/h (2 Bft) S 180 0 min 0,0 UV-I 3,4 C 2,8 C 9,5 km/h (2 Bft)
19.02.2012 02:35 5,6 C 6,1 C 4,8 C 5,0 C 3,8 C 0,0 C 86 % 93 % 0 % 1011,0 hPa 0,0 l/m 6,8 km/h (2 Bft) SW 225 0 min 0,0 UV-I 3,4 C 2,1 C 10,5 km/h (2 Bft)
19.02.2012 02:40 5,6 C 6,0 C 4,7 C 5,0 C 3,7 C 0,0 C 86 % 93 % 0 % 1011,0 hPa 0,0 l/m 7,2 km/h (2 Bft) S-SW 202 0 min 0,0 UV-I 3,4 C 1,8 C 14,6 km/h (3 Bft)
19.02.2012 02:45 5,7 C 6,0 C 4,7 C 5,2 C 3,4 C 0,0 C 86 % 93 % 0 % 1011,0 hPa 0,0 l/m 8,5 km/h (2 Bft) W-NW 292 0 min 0,0 UV-I 3,5 C 1,1 C 8,5 km/h (2 Bft)
19.02.2012 02:50 5,6 C 6,0 C 4,7 C 5,1 C 3,6 C 0,0 C 86 % 93 % 0 % 1011,0 hPa 0,0 l/m 8,2 km/h (2 Bft) S 180 0 min 0,0 UV-I 3,4 C 1,4 C 12,2 km/h (2 Bft)
19.02.2012 02:55 5,6 C 6,0 C 4,8 C 5,1 C 4,0 C 0,0 C 86 % 93 % 0 % 1011,0 hPa 0,0 l/m 6,1 km/h (2 Bft) W 270 0 min 0,0 UV-I 3,4 C 2,5 C 6,6 km/h (2 Bft)
19.02.2012 03:00 5,5 C 6,0 C 4,8 C 5,0 C 4,1 C 0,0 C 86 % 93 % 0 % 1010,5 hPa 0,0 l/m 6,0 km/h (2 Bft) S 180 0 min 0,0 UV-I 3,3 C 2,7 C 3,4 km/h (1 Bft)
19.02.2012 03:12 5,5 C 6,0 C 4,7 C 5,1 C 4,3 C 0,0 C 86 % 93 % 0 % 1010,5 hPa 0,0 l/m 5,3 km/h (1 Bft) N 0 0 min 0,0 UV-I 3,3 C 3,2 C 3,5 km/h (1 Bft)
19.02.2012 03:20 5,5 C 6,0 C 4,7 C 4,9 C 3,7 C 0,0 C 86 % 93 % 0 % 1010,2 hPa 0,7 l/m 6,8 km/h (2 Bft) S-SO 157 0 min 0,0 UV-I 3,3 C 2,0 C 6,3 km/h (2 Bft)
19.02.2012 03:25 5,5 C 6,0 C 4,7 C 4,9 C 3,6 C 0,0 C 86 % 93 % 0 % 1010,2 hPa 0,0 l/m 7,2 km/h (2 Bft) SW 225 0 min 0,0 UV-I 3,3 C 1,7 C 9,3 km/h (2 Bft)
19.02.2012 03:30 5,5 C 6,0 C 4,7 C 4,9 C 3,6 C 0,0 C 86 % 93 % 0 % 1010,2 hPa 0,0 l/m 7,4 km/h (2 Bft) SO 135 0 min 0,0 UV-I 3,3 C 1,7 C 10,5 km/h (2 Bft)
19.02.2012 03:35 5,5 C 6,0 C 4,7 C 4,9 C 3,6 C 0,0 C 86 % 93 % 0 % 1010,2 hPa 0,0 l/m 7,1 km/h (2 Bft) N 360 0 min 0,0 UV-I 3,3 C 1,8 C 4,8 km/h (1 Bft)
19.02.2012 03:40 5,5 C 6,0 C 4,7 C 4,8 C 3,5 C 0,0 C 86 % 93 % 0 % 1009,9 hPa 0,0 l/m 7,6 km/h (2 Bft) S 180 0 min 0,0 UV-I 3,3 C 1,5 C 11,6 km/h (2 Bft)
19.02.2012 03:45 5,5 C 6,0 C 4,8 C 5,0 C 3,0 C 0,0 C 86 % 93 % 0 % 1009,9 hPa 0,0 l/m 9,7 km/h (2 Bft) SO 135 0 min 0,0 UV-I 3,3 C 0,3 C 14,2 km/h (3 Bft)
19.02.2012 03:50 5,5 C 6,0 C 4,8 C 4,9 C 3,1 C 0,0 C 85 % 93 % 0 % 1009,9 hPa 0,0 l/m 9,2 km/h (2 Bft) W-NW 292 0 min 0,0 UV-I 3,2 C 0,6 C 20,3 km/h (4 Bft)
19.02.2012 03:55 5,5 C 6,0 C 4,7 C 4,9 C 3,3 C 0,0 C 86 % 93 % 0 % 1009,9 hPa 0,0 l/m 7,9 km/h (2 Bft) S 180 0 min 0,0 UV-I 3,3 C 1,2 C 6,0 km/h (2 Bft)
19.02.2012 04:00 5,4 C 6,1 C 4,7 C 4,9 C 3,2 C 0,0 C 86 % 93 % 0 % 1009,9 hPa 0,0 l/m 8,0 km/h (2 Bft) SW 225 0 min 0,0 UV-I 3,3 C 1,0 C 22,2 km/h (4 Bft)
19.02.2012 04:12 5,3 C 6,0 C 4,7 C 4,8 C 2,8 C 0,0 C 86 % 93 % 0 % 1009,9 hPa 0,0 l/m 9,3 km/h (2 Bft) N 0 0 min 0,0 UV-I 3,2 C 0,2 C 8,9 km/h (2 Bft)
19.02.2012 04:20 5,3 C 6,1 C 4,6 C 4,7 C 2,6 C 0,0 C 86 % 93 % 0 % 1009,9 hPa 0,0 l/m 10,1 km/h (2 Bft) O-SO 112 0 min 0,0 UV-I 3,2 C -0,2 C 11,9 km/h (2 Bft)
19.02.2012 04:25 5,3 C 6,0 C 4,5 C 4,7 C 3,0 C 0,0 C 86 % 93 % 0 % 1009,9 hPa 0,0 l/m 7,9 km/h (2 Bft) S 180 0 min 0,0 UV-I 3,2 C 0,8 C 14,5 km/h (3 Bft)
19.02.2012 04:30 5,3 C 6,0 C 4,5 C 4,6 C 3,3 C 0,0 C 86 % 93 % 0 % 1009,9 hPa 0,0 l/m 7,2 km/h (2 Bft) S 180 0 min 0,0 UV-I 3,2 C 1,4 C 9,8 km/h (2 Bft)
19.02.2012 04:35 5,2 C 6,0 C 4,5 C 4,7 C 3,1 C 0,0 C 86 % 93 % 0 % 1009,9 hPa 0,0 l/m 8,2 km/h (2 Bft) SO 135 0 min 0,0 UV-I 3,1 C 0,8 C 7,6 km/h (2 Bft)
19.02.2012 04:40 5,2 C 6,0 C 4,5 C 4,7 C 2,9 C 0,0 C 86 % 93 % 0 % 1009,2 hPa 0,0 l/m 8,7 km/h (2 Bft) S 180 0 min 0,0 UV-I 3,1 C 0,5 C 10,6 km/h (2 Bft)
19.02.2012 04:45 5,2 C 6,0 C 4,4 C 4,7 C 3,1 C 0,0 C 86 % 93 % 0 % 1009,2 hPa 0,0 l/m 8,2 km/h (2 Bft) NO 45 0 min 0,0 UV-I 3,1 C 0,8 C 6,4 km/h (2 Bft)
19.02.2012 04:50 5,2 C 6,0 C 4,4 C 4,7 C 2,8 C 0,0 C 86 % 93 % 0 % 1009,2 hPa 0,0 l/m 9,2 km/h (2 Bft) S 180 0 min 0,0 UV-I 3,1 C 0,2 C 11,6 km/h (2 Bft)
19.02.2012 04:55 5,2 C 6,1 C 4,4 C 4,6 C 2,7 C 0,0 C 86 % 93 % 0 % 1009,2 hPa 0,0 l/m 9,5 km/h (2 Bft) S-SW 202 0 min 0,0 UV-I 3,1 C 0,0 C 4,0 km/h (1 Bft)
19.02.2012 05:00 5,2 C 6,0 C 4,5 C 4,6 C 2,8 C 0,0 C 86 % 93 % 0 % 1009,2 hPa 0,0 l/m 8,4 km/h (2 Bft) S-SW 202 0 min 0,0 UV-I 3,1 C 0,4 C 10,5 km/h (2 Bft)
19.02.2012 05:12 5,1 C 6,0 C 4,4 C 4,6 C 3,0 C 0,0 C 86 % 93 % 0 % 1009,2 hPa 0,0 l/m 8,0 km/h (2 Bft) N 0 0 min 0,0 UV-I 3,0 C 0,8 C 10,3 km/h (2 Bft)
19.02.2012 05:20 5,1 C 6,0 C 4,4 C 4,4 C 3,0 C 0,0 C 86 % 93 % 0 % 1009,0 hPa 0,0 l/m 8,0 km/h (2 Bft) W-SW 247 0 min 0,0 UV-I 3,0 C 0,8 C 11,3 km/h (2 Bft)
19.02.2012 05:25 5,0 C 6,0 C 4,4 C 4,6 C 3,1 C 0,0 C 86 % 92 % 0 % 1009,0 hPa 0,0 l/m 7,7 km/h (2 Bft) O-SO 112 0 min 0,0 UV-I 2,9 C 1,0 C 4,2 km/h (1 Bft)
19.02.2012 05:30 5,1 C 6,0 C 4,3 C 4,5 C 3,3 C 0,0 C 86 % 92 % 0 % 1009,0 hPa 0,0 l/m 6,4 km/h (2 Bft) SW 225 0 min 0,0 UV-I 3,0 C 1,6 C 10,3 km/h (2 Bft)
19.02.2012 05:35 5,0 C 6,0 C 4,3 C 4,5 C 3,5 C 0,0 C 86 % 92 % 0 % 1009,0 hPa 0,0 l/m 5,8 km/h (2 Bft) O-NO 67 0 min 0,0 UV-I 2,9 C 2,1 C 4,5 km/h (1 Bft)
19.02.2012 05:40 5,1 C 6,0 C 4,4 C 4,5 C 3,2 C 0,0 C 86 % 92 % 0 % 1008,9 hPa 0,0 l/m 6,6 km/h (2 Bft) W-SW 247 0 min 0,0 UV-I 3,0 C 1,4 C 9,5 km/h (2 Bft)
19.02.2012 05:45 5,0 C 6,0 C 4,3 C 4,4 C 3,3 C 0,0 C 86 % 92 % 0 % 1008,9 hPa 0,0 l/m 6,3 km/h (2 Bft) S-SO 157 0 min 0,0 UV-I 2,9 C 1,7 C 6,8 km/h (2 Bft)
19.02.2012 05:50 4,9 C 6,0 C 4,3 C 4,4 C 3,5 C 0,0 C 86 % 92 % 0 % 1008,9 hPa 0,0 l/m 5,6 km/h (1 Bft) SO 135 0 min 0,0 UV-I 2,8 C 2,1 C 4,3 km/h (1 Bft)
19.02.2012 05:55 4,9 C 6,0 C 4,2 C 4,5 C 3,7 C 0,0 C 86 % 92 % 0 % 1008,9 hPa 0,7 l/m 4,8 km/h (1 Bft) O-NO 67 0 min 0,0 UV-I 2,8 C 2,7 C 5,6 km/h (1 Bft)
19.02.2012 06:00 4,9 C 6,0 C 4,3 C 4,4 C 3,5 C 0,0 C 86 % 92 % 0 % 1009,1 hPa 0,0 l/m 5,3 km/h (1 Bft) S 180 0 min 0,0 UV-I 2,8 C 2,3 C 3,7 km/h (1 Bft)
19.02.2012 06:12 4,9 C 6,0 C 4,3 C 4,5 C 3,6 C 0,0 C 86 % 92 % 0 % 1009,1 hPa 0,0 l/m 4,7 km/h (1 Bft) N 0 0 min 0,0 UV-I 2,8 C 2,6 C 5,0 km/h (1 Bft)
19.02.2012 06:20 4,9 C 6,0 C 4,3 C 4,5 C 3,6 C 0,0 C 86 % 92 % 0 % 1008,9 hPa 0,0 l/m 5,0 km/h (1 Bft) SO 135 0 min 0,0 UV-I 2,8 C 2,5 C 5,1 km/h (1 Bft)
19.02.2012 06:25 4,9 C 5,9 C 4,2 C 4,4 C 3,3 C 0,0 C 85 % 92 % 0 % 1008,9 hPa 0,0 l/m 6,0 km/h (2 Bft) S-SO 157 0 min 0,0 UV-I 2,6 C 1,8 C 18,2 km/h (3 Bft)
19.02.2012 06:30 5,0 C 5,9 C 4,2 C 4,5 C 3,5 C 0,0 C 85 % 92 % 0 % 1008,9 hPa 0,0 l/m 5,6 km/h (1 Bft) N-NO 22 0 min 0,0 UV-I 2,7 C 2,1 C 2,9 km/h (1 Bft)
19.02.2012 06:35 5,1 C 5,9 C 4,3 C 4,5 C 3,4 C 0,0 C 84 % 92 % 0 % 1008,9 hPa 0,0 l/m 6,0 km/h (2 Bft) W 270 0 min 0,0 UV-I 2,6 C 1,9 C 10,9 km/h (2 Bft)
19.02.2012 06:40 5,1 C 5,9 C 4,3 C 4,5 C 3,4 C 0,0 C 84 % 92 % 0 % 1008,8 hPa 0,0 l/m 6,6 km/h (2 Bft) S-SO 157 0 min 0,0 UV-I 2,6 C 1,7 C 9,2 km/h (2 Bft)
19.02.2012 06:45 5,1 C 5,9 C 4,3 C 4,6 C 3,6 C 0,0 C 84 % 92 % 0 % 1008,8 hPa 0,0 l/m 6,0 km/h (2 Bft) O-NO 67 0 min 0,0 UV-I 2,6 C 2,1 C 10,3 km/h (2 Bft)
19.02.2012 06:50 5,1 C 5,9 C 4,3 C 4,6 C 3,6 C 0,0 C 84 % 92 % 0 % 1008,8 hPa 0,0 l/m 5,6 km/h (1 Bft) W 270 0 min 0,0 UV-I 2,6 C 2,3 C 4,7 km/h (1 Bft)
19.02.2012 06:55 4,9 C 5,9 C 4,3 C 4,4 C 3,5 C 0,0 C 84 % 92 % 0 % 1008,8 hPa 0,0 l/m 5,6 km/h (1 Bft) O-NO 67 0 min 0,0 UV-I 2,4 C 2,1 C 4,5 km/h (1 Bft)
19.02.2012 07:00 4,9 C 5,9 C 4,3 C 4,4 C 3,4 C 0,0 C 84 % 92 % 0 % 1008,9 hPa 0,0 l/m 5,8 km/h (2 Bft) S 180 0 min 0,0 UV-I 2,4 C 2,0 C 13,8 km/h (3 Bft)
19.02.2012 07:11 4,8 C 5,9 C 4,3 C 4,4 C 3,7 C 0,0 C 84 % 92 % 0 % 1008,9 hPa 0,0 l/m 5,3 km/h (1 Bft) N 0 0 min 0,0 UV-I 2,3 C 2,5 C 6,4 km/h (2 Bft)
19.02.2012 07:20 4,8 C 5,9 C 4,3 C 4,4 C 3,5 C 0,0 C 83 % 92 % 0 % 1009,3 hPa 0,0 l/m 5,8 km/h (2 Bft) W 270 0 min 0,0 UV-I 2,2 C 2,1 C 10,6 km/h (2 Bft)
19.02.2012 07:25 4,9 C 5,9 C 4,3 C 4,4 C 3,3 C 0,0 C 83 % 92 % 0 % 1009,3 hPa 0,0 l/m 6,3 km/h (2 Bft) S-SW 202 0 min 0,0 UV-I 2,3 C 1,7 C 4,2 km/h (1 Bft)
19.02.2012 07:30 4,8 C 5,9 C 4,3 C 4,3 C 3,2 C 0,0 C 84 % 92 % 0 % 1009,3 hPa 0,0 l/m 6,1 km/h (2 Bft) N 360 0 min 0,0 UV-I 2,3 C 1,6 C 15,9 km/h (3 Bft)
19.02.2012 07:35 4,9 C 5,9 C 4,3 C 4,5 C 3,6 C 0,0 C 84 % 92 % 0 % 1009,3 hPa 0,0 l/m 5,0 km/h (1 Bft) O 90 0 min 0,0 UV-I 2,4 C 2,5 C 2,4 km/h (1 Bft)
19.02.2012 07:40 4,8 C 5,9 C 4,3 C 4,3 C 3,3 C 0,0 C 84 % 92 % 0 % 1009,1 hPa 0,0 l/m 5,5 km/h (1 Bft) SW 225 0 min 0,0 UV-I 2,3 C 2,0 C 8,4 km/h (2 Bft)
19.02.2012 07:45 4,8 C 6,0 C 4,1 C 4,3 C 3,4 C 0,0 C 84 % 92 % 0 % 1009,1 hPa 0,0 l/m 5,0 km/h (1 Bft) SW 225 0 min 0,0 UV-I 2,3 C 2,3 C 5,6 km/h (1 Bft)
19.02.2012 07:50 4,7 C 6,0 C 4,0 C 4,2 C 3,3 C 0,0 C 85 % 92 % 0 % 1009,1 hPa 0,0 l/m 5,0 km/h (1 Bft) W-SW 247 0 min 0,0 UV-I 2,4 C 2,2 C 9,3 km/h (2 Bft)
19.02.2012 07:55 4,6 C 6,0 C 4,1 C 4,1 C 3,1 C 0,0 C 85 % 92 % 0 % 1009,1 hPa 0,0 l/m 5,1 km/h (1 Bft) O-SO 112 0 min 0,0 UV-I 2,3 C 1,9 C 3,5 km/h (1 Bft)
19.02.2012 08:00 4,7 C 6,1 C 4,1 C 4,0 C 2,7 C 0,0 C 86 % 92 % 0 % 1010,1 hPa 0,0 l/m 6,3 km/h (2 Bft) W-SW 247 0 min 0,0 UV-I 2,6 C 1,0 C 20,4 km/h (4 Bft)
19.02.2012 08:12 4,4 C 6,1 C 3,7 C 3,9 C 1,9 C 0,0 C 86 % 92 % 0 % 1010,1 hPa 0,0 l/m 8,4 km/h (2 Bft) N 0 0 min 0,0 UV-I 2,3 C -0,6 C 3,7 km/h (1 Bft)
19.02.2012 08:20 3,1 C 6,2 C 2,3 C 2,5 C 1,3 C 0,0 C 83 % 91 % 0 % 1011,0 hPa 0,0 l/m 4,3 km/h (1 Bft) W-SW 247 0 min 0,0 UV-I 0,5 C 1,3 C 2,3 km/h (1 Bft)
19.02.2012 08:25 2,5 C 6,2 C 1,9 C 2,0 C 1,0 C 0,0 C 84 % 91 % 0 % 1011,0 hPa 0,0 l/m 3,5 km/h (1 Bft) W-SW 247 0 min 0,0 UV-I 0,1 C 1,0 C 6,8 km/h (2 Bft)
19.02.2012 08:30 2,2 C 6,2 C 1,6 C 1,7 C 0,7 C 0,0 C 85 % 92 % 0 % 1011,0 hPa 0,7 l/m 3,4 km/h (1 Bft) W 270 0 min 0,0 UV-I -0,1 C 0,7 C 6,1 km/h (2 Bft)
19.02.2012 08:35 2,0 C 6,2 C 1,4 C 1,4 C 0,2 C 0,0 C 86 % 92 % 0 % 1011,0 hPa 0,0 l/m 3,7 km/h (1 Bft) NW 315 0 min 0,0 UV-I -0,1 C 0,2 C 5,5 km/h (1 Bft)
19.02.2012 08:40 1,9 C 6,2 C 1,5 C 1,5 C 0,6 C 0,0 C 87 % 92 % 0 % 1011,8 hPa 0,0 l/m 3,1 km/h (1 Bft) SW 225 0 min 0,0 UV-I -0,0 C 0,6 C 3,4 km/h (1 Bft)
19.02.2012 08:45 1,7 C 6,2 C 1,3 C 1,5 C 1,0 C 0,0 C 87 % 92 % 0 % 1011,8 hPa 0,0 l/m 2,3 km/h (1 Bft) S-SW 202 0 min 0,0 UV-I -0,2 C 1,0 C 4,0 km/h (1 Bft)
19.02.2012 08:50 1,6 C 6,2 C 1,3 C 1,4 C 1,0 C 0,0 C 88 % 92 % 0 % 1011,8 hPa 0,0 l/m 1,9 km/h (1 Bft) O-SO 112 0 min 0,0 UV-I -0,2 C 1,0 C 2,1 km/h (1 Bft)
19.02.2012 08:55 1,6 C 6,2 C 1,2 C 1,4 C 1,1 C 0,0 C 88 % 93 % 0 % 1011,8 hPa 0,0 l/m 2,3 km/h (1 Bft) N-NW 337 0 min 0,0 UV-I -0,2 C 1,1 C 2,9 km/h (1 Bft)
19.02.2012 09:00 1,5 C 6,2 C 1,3 C 1,4 C 1,1 C 0,0 C 88 % 93 % 0 % 1012,0 hPa 0,0 l/m 2,1 km/h (1 Bft) W 270 0 min 0,0 UV-I -0,3 C 1,1 C 7,6 km/h (2 Bft)
19.02.2012 09:13 1,5 C 6,2 C 1,1 C 1,2 C 0,6 C 0,0 C 89 % 93 % 0 % 1012,0 hPa 0,0 l/m 3,4 km/h (1 Bft) SW 225 0 min 0,0 UV-I -0,1 C 0,6 C 14,5 km/h (3 Bft)
19.02.2012 09:20 1,3 C 6,2 C 1,1 C 0,7 C -0,6 C 0,0 C 90 % 93 % 0 % 1012,3 hPa 0,7 l/m 5,6 km/h (1 Bft) NW 315 0 min 0,0 UV-I -0,2 C -2,5 C 4,2 km/h (1 Bft)
19.02.2012 09:25 1,2 C 6,2 C 1,1 C 0,7 C -0,2 C 0,0 C 90 % 93 % 0 % 1012,3 hPa 0,0 l/m 4,5 km/h (1 Bft) W-SW 247 0 min 0,0 UV-I -0,3 C -0,2 C 4,0 km/h (1 Bft)
19.02.2012 09:30 1,2 C 6,2 C 0,9 C 1,0 C 0,7 C 0,0 C 90 % 93 % 0 % 1012,3 hPa 0,0 l/m 2,9 km/h (1 Bft) SW 225 0 min 0,0 UV-I -0,3 C 0,7 C 1,8 km/h (1 Bft)
19.02.2012 09:35 1,2 C 6,2 C 1,0 C 1,2 C 1,1 C 0,0 C 90 % 93 % 0 % 1012,3 hPa 0,0 l/m 1,6 km/h (1 Bft) SW 225 0 min 0,0 UV-I -0,3 C 1,1 C 2,3 km/h (1 Bft)
19.02.2012 09:40 1,2 C 6,2 C 1,1 C 1,2 C 1,2 C 0,0 C 90 % 93 % 0 % 1013,1 hPa 0,0 l/m 2,1 km/h (1 Bft) W-SW 247 0 min 0,0 UV-I -0,3 C 1,2 C 4,8 km/h (1 Bft)
19.02.2012 09:45 1,2 C 6,2 C 1,1 C 1,1 C 0,8 C 0,0 C 90 % 93 % 0 % 1013,1 hPa 0,0 l/m 3,4 km/h (1 Bft) SW 225 0 min 0,0 UV-I -0,3 C 0,8 C 4,2 km/h (1 Bft)
19.02.2012 09:50 1,2 C 6,2 C 1,2 C 0,9 C 0,4 C 0,0 C 90 % 94 % 0 % 1013,1 hPa 0,0 l/m 4,0 km/h (1 Bft) W-SW 247 0 min 0,0 UV-I -0,3 C 0,4 C 8,2 km/h (2 Bft)
19.02.2012 09:55 1,2 C 6,4 C 1,2 C 0,9 C 0,3 C 0,0 C 90 % 94 % 0 % 1013,1 hPa 0,0 l/m 4,3 km/h (1 Bft) W-SW 247 0 min 0,0 UV-I -0,3 C 0,3 C 4,3 km/h (1 Bft)
19.02.2012 10:00 1,3 C 6,4 C 1,2 C 1,0 C 0,4 C 0,0 C 90 % 94 % 0 % 1012,7 hPa 0,0 l/m 4,3 km/h (1 Bft) W-SW 247 0 min 0,0 UV-I -0,2 C 0,4 C 4,7 km/h (1 Bft)
19.02.2012 10:15 1,6 C 6,4 C 1,6 C 1,5 C 1,4 C 0,0 C 91 % 94 % 0 % 1012,7 hPa 0,0 l/m 3,5 km/h (1 Bft) N 0 0 min 0,0 UV-I 0,3 C 1,4 C 4,7 km/h (1 Bft)
19.02.2012 10:25 1,6 C 6,4 C 1,6 C 2,1 C 2,1 C 0,5 C 91 % 94 % 13 % 1012,9 hPa 0,0 l/m 2,9 km/h (1 Bft) W 270 0 min 0,0 UV-I 0,3 C 2,1 C 3,4 km/h (1 Bft)
19.02.2012 10:30 1,7 C 6,4 C 1,6 C 2,4 C 2,4 C 0,7 C 91 % 94 % 18 % 1012,9 hPa 0,0 l/m 2,3 km/h (1 Bft) O-SO 112 0 min 0,0 UV-I 0,4 C 2,4 C 2,7 km/h (1 Bft)
19.02.2012 10:35 1,9 C 6,4 C 1,7 C 2,7 C 2,7 C 0,8 C 91 % 94 % 21 % 1012,9 hPa 0,0 l/m 2,7 km/h (1 Bft) NW 315 0 min 0,0 UV-I 0,6 C 2,7 C 0,0 km/h (0 Bft)
19.02.2012 10:40 1,9 C 6,4 C 1,8 C 2,8 C 2,8 C 0,9 C 91 % 94 % 24 % 1013,8 hPa 0,0 l/m 2,1 km/h (1 Bft) N-NW 337 0 min 0,0 UV-I 0,6 C 2,8 C 1,8 km/h (1 Bft)
19.02.2012 10:45 2,0 C 6,3 C 2,1 C 3,4 C 3,4 C 1,4 C 91 % 94 % 37 % 1013,8 hPa 0,0 l/m 1,3 km/h (1 Bft) SO 135 0 min 0,0 UV-I 0,7 C 3,4 C 2,3 km/h (1 Bft)
19.02.2012 10:50 2,1 C 6,3 C 2,0 C 3,8 C 3,8 C 1,7 C 91 % 94 % 45 % 1013,8 hPa 0,0 l/m 1,3 km/h (1 Bft) W-SW 247 0 min 0,0 UV-I 0,8 C 3,8 C 5,3 km/h (1 Bft)
19.02.2012 10:55 2,3 C 6,3 C 2,3 C 3,9 C 3,9 C 1,6 C 91 % 94 % 42 % 1013,8 hPa 0,0 l/m 2,3 km/h (1 Bft) W-SW 247 0 min 0,0 UV-I 1,0 C 3,9 C 8,0 km/h (2 Bft)
19.02.2012 11:00 2,4 C 6,3 C 2,4 C 3,6 C 3,6 C 1,2 C 91 % 94 % 32 % 1013,9 hPa 0,0 l/m 3,5 km/h (1 Bft) W-SW 247 0 min 0,0 UV-I 1,1 C 3,6 C 9,8 km/h (2 Bft)
19.02.2012 11:15 2,9 C 6,1 C 2,6 C 3,3 C 2,1 C 0,4 C 90 % 94 % 11 % 1013,9 hPa 0,0 l/m 8,5 km/h (2 Bft) N 0 0 min 0,0 UV-I 1,4 C -0,4 C 14,6 km/h (3 Bft)
19.02.2012 11:25 3,1 C 6,0 C 2,7 C 2,9 C 1,6 C 0,0 C 87 % 94 % 0 % 1014,8 hPa 0,0 l/m 10,5 km/h (2 Bft) W 270 0 min 0,0 UV-I 1,2 C -1,5 C 10,9 km/h (2 Bft)
19.02.2012 11:30 3,1 C 6,0 C 2,7 C 2,9 C 1,8 C 0,0 C 87 % 94 % 0 % 1014,8 hPa 0,0 l/m 10,0 km/h (2 Bft) W-SW 247 0 min 0,0 UV-I 1,2 C -1,2 C 10,8 km/h (2 Bft)
19.02.2012 11:35 3,2 C 6,0 C 2,8 C 3,1 C 2,3 C 0,0 C 85 % 94 % 0 % 1014,8 hPa 0,0 l/m 9,3 km/h (2 Bft) W-SW 247 0 min 0,0 UV-I 0,9 C -0,4 C 12,9 km/h (3 Bft)
19.02.2012 11:40 3,3 C 6,0 C 3,0 C 3,6 C 3,2 C 0,3 C 85 % 93 % 8 % 1015,2 hPa 0,0 l/m 9,0 km/h (2 Bft) SW 225 0 min 0,0 UV-I 1,0 C 0,8 C 9,3 km/h (2 Bft)
19.02.2012 11:45 3,5 C 6,0 C 3,1 C 4,2 C 3,9 C 0,7 C 85 % 93 % 18 % 1015,2 hPa 0,0 l/m 7,7 km/h (2 Bft) W-SW 247 0 min 0,0 UV-I 1,2 C 1,9 C 10,0 km/h (2 Bft)
19.02.2012 11:50 3,4 C 5,9 C 3,1 C 3,8 C 3,8 C 0,4 C 83 % 93 % 11 % 1015,2 hPa 0,0 l/m 7,6 km/h (2 Bft) W-SW 247 0 min 0,0 UV-I 0,8 C 1,8 C 13,5 km/h (3 Bft)
19.02.2012 11:55 3,5 C 5,9 C 3,0 C 4,1 C 3,2 C 0,6 C 81 % 92 % 16 % 1015,2 hPa 0,0 l/m 9,2 km/h (2 Bft) W-SW 247 0 min 0,0 UV-I 0,6 C 0,7 C 9,7 km/h (2 Bft)
19.02.2012 12:00 3,4 C 5,9 C 3,0 C 3,7 C 2,9 C 0,3 C 81 % 92 % 8 % 1014,8 hPa 0,0 l/m 9,7 km/h (2 Bft) W-SW 247 0 min 0,0 UV-I 0,5 C 0,2 C 21,1 km/h (4 Bft)
19.02.2012 12:15 3,6 C 5,9 C 3,1 C 4,0 C 3,4 C 0,4 C 78 % 90 % 11 % 1014,8 hPa 0,0 l/m 10,3 km/h (2 Bft) N 0 0 min 0,0 UV-I 0,1 C 0,7 C 15,4 km/h (3 Bft)
19.02.2012 12:25 3,6 C 5,9 C 3,1 C 3,6 C 2,3 C 0,0 C 76 % 89 % 0 % 1015,6 hPa 0,0 l/m 13,4 km/h (3 Bft) W-SW 247 0 min 0,0 UV-I -0,2 C -1,3 C 11,7 km/h (2 Bft)
19.02.2012 12:30 3,7 C 5,9 C 3,2 C 3,2 C 2,3 C 0,0 C 76 % 88 % 0 % 1015,6 hPa 0,0 l/m 13,4 km/h (3 Bft) W-SW 247 0 min 0,0 UV-I -0,1 C -1,3 C 24,0 km/h (4 Bft)
19.02.2012 12:35 3,6 C 5,9 C 3,1 C 3,5 C 2,2 C 0,0 C 76 % 88 % 0 % 1015,6 hPa 0,0 l/m 13,0 km/h (3 Bft) W-SW 247 0 min 0,0 UV-I -0,2 C -1,3 C 17,5 km/h (3 Bft)
19.02.2012 12:40 3,6 C 5,9 C 3,1 C 3,4 C 1,9 C 0,0 C 76 % 88 % 0 % 1015,4 hPa 0,0 l/m 13,0 km/h (3 Bft) SW 225 0 min 0,0 UV-I -0,2 C -1,7 C 24,6 km/h (4 Bft)
19.02.2012 12:45 3,6 C 5,9 C 3,2 C 3,4 C 2,3 C 0,0 C 77 % 89 % 0 % 1015,4 hPa 0,0 l/m 12,6 km/h (3 Bft) SW 225 0 min 0,0 UV-I -0,0 C -1,1 C 12,9 km/h (3 Bft)
19.02.2012 12:50 3,7 C 5,9 C 3,3 C 3,6 C 2,7 C 0,0 C 76 % 89 % 0 % 1015,4 hPa 0,0 l/m 11,3 km/h (2 Bft) W-SW 247 0 min 0,0 UV-I -0,1 C -0,4 C 12,7 km/h (3 Bft)
19.02.2012 12:55 3,9 C 5,9 C 3,5 C 3,8 C 2,8 C 0,0 C 76 % 88 % 0 % 1015,4 hPa 0,0 l/m 10,6 km/h (2 Bft) W-SW 247 0 min 0,0 UV-I 0,1 C -0,1 C 13,2 km/h (3 Bft)
19.02.2012 13:00 3,8 C 5,9 C 3,4 C 3,8 C 3,2 C 0,0 C 77 % 89 % 0 % 1015,6 hPa 0,0 l/m 9,3 km/h (2 Bft) S 180 0 min 0,0 UV-I 0,1 C 0,7 C 8,5 km/h (2 Bft)
19.02.2012 13:12 4,0 C 5,9 C 3,6 C 4,1 C 3,6 C 0,1 C 77 % 89 % 3 % 1015,6 hPa 0,0 l/m 9,2 km/h (2 Bft) N 0 0 min 0,0 UV-I 0,3 C 1,2 C 9,8 km/h (2 Bft)
19.02.2012 13:20 4,0 C 5,9 C 3,9 C 4,3 C 3,4 C 0,3 C 74 % 85 % 8 % 1016,1 hPa 0,0 l/m 11,3 km/h (2 Bft) SW 225 0 min 0,0 UV-I -0,2 C 0,5 C 19,8 km/h (3 Bft)
19.02.2012 13:25 4,0 C 5,9 C 3,7 C 3,9 C 2,6 C 0,0 C 72 % 84 % 0 % 1016,1 hPa 0,0 l/m 13,2 km/h (3 Bft) W-SW 247 0 min 0,0 UV-I -0,6 C -0,9 C 15,4 km/h (3 Bft)
19.02.2012 13:30 4,0 C 5,9 C 3,7 C 3,8 C 2,3 C 0,0 C 72 % 84 % 0 % 1016,1 hPa 0,0 l/m 12,9 km/h (3 Bft) W-SW 247 0 min 0,0 UV-I -0,6 C -1,2 C 14,3 km/h (3 Bft)
19.02.2012 13:35 4,1 C 5,9 C 3,6 C 3,8 C 2,2 C 0,0 C 73 % 83 % 0 % 1016,1 hPa 0,0 l/m 10,9 km/h (2 Bft) SW 225 0 min 0,0 UV-I -0,3 C -0,9 C 14,8 km/h (3 Bft)
19.02.2012 13:40 4,0 C 5,9 C 3,6 C 3,7 C 2,3 C 0,0 C 73 % 83 % 0 % 1016,6 hPa 0,0 l/m 10,3 km/h (2 Bft) W-SW 247 0 min 0,0 UV-I -0,4 C -0,6 C 10,8 km/h (2 Bft)
19.02.2012 13:45 4,0 C 5,9 C 3,8 C 3,7 C 2,1 C 0,0 C 73 % 82 % 0 % 1016,6 hPa 0,0 l/m 10,9 km/h (2 Bft) W-SW 247 0 min 0,0 UV-I -0,4 C -1,0 C 15,3 km/h (3 Bft)
19.02.2012 13:50 4,0 C 5,9 C 3,8 C 3,4 C 2,1 C 0,0 C 73 % 81 % 0 % 1016,6 hPa 0,0 l/m 11,1 km/h (2 Bft) W-SW 247 0 min 0,0 UV-I -0,4 C -1,1 C 16,1 km/h (3 Bft)
19.02.2012 13:55 4,1 C 5,9 C 3,8 C 3,7 C 2,0 C 0,0 C 73 % 80 % 0 % 1016,6 hPa 0,0 l/m 11,9 km/h (2 Bft) W-SW 247 0 min 0,0 UV-I -0,3 C -1,4 C 11,4 km/h (2 Bft)
19.02.2012 14:00 4,0 C 5,9 C 3,9 C 3,7 C 2,1 C 0,0 C 73 % 80 % 0 % 1016,2 hPa 0,0 l/m 12,4 km/h (3 Bft) W-SW 247 0 min 0,0 UV-I -0,4 C -1,3 C 11,7 km/h (2 Bft)
19.02.2012 14:12 4,1 C 5,9 C 4,1 C 3,9 C 2,7 C 0,0 C 73 % 79 % 0 % 1016,2 hPa 0,0 l/m 11,3 km/h (2 Bft) N 0 0 min 0,0 UV-I -0,3 C -0,4 C 12,7 km/h (3 Bft)
19.02.2012 14:20 4,2 C 5,9 C 4,0 C 4,0 C 2,8 C 0,0 C 71 % 77 % 0 % 1016,4 hPa 0,0 l/m 10,9 km/h (2 Bft) O-SO 112 0 min 0,0 UV-I -0,6 C -0,2 C 8,9 km/h (2 Bft)
19.02.2012 14:25 4,3 C 5,9 C 4,1 C 4,1 C 3,1 C 0,0 C 71 % 76 % 0 % 1016,4 hPa 0,0 l/m 9,3 km/h (2 Bft) S 180 0 min 0,0 UV-I -0,5 C 0,6 C 10,8 km/h (2 Bft)
19.02.2012 14:30 4,3 C 5,9 C 4,0 C 4,1 C 2,8 C 0,0 C 70 % 76 % 0 % 1016,4 hPa 0,0 l/m 9,8 km/h (2 Bft) W-SW 247 0 min 0,0 UV-I -0,7 C 0,1 C 15,1 km/h (3 Bft)
19.02.2012 14:35 4,3 C 5,9 C 4,0 C 4,0 C 2,2 C 0,0 C 69 % 74 % 0 % 1016,4 hPa 0,0 l/m 10,8 km/h (2 Bft) SW 225 0 min 0,0 UV-I -0,9 C -0,9 C 17,7 km/h (3 Bft)
19.02.2012 14:40 4,2 C 5,9 C 3,9 C 3,5 C 2,2 C 0,0 C 69 % 75 % 0 % 1016,4 hPa 0,0 l/m 10,6 km/h (2 Bft) W-SW 247 0 min 0,0 UV-I -1,0 C -0,8 C 11,6 km/h (2 Bft)
19.02.2012 14:45 4,1 C 5,9 C 3,9 C 3,7 C 2,0 C 0,0 C 69 % 74 % 0 % 1016,4 hPa 0,0 l/m 10,9 km/h (2 Bft) W-SW 247 0 min 0,0 UV-I -1,1 C -1,1 C 14,3 km/h (3 Bft)
19.02.2012 14:50 4,1 C 5,9 C 3,9 C 3,7 C 1,9 C 0,0 C 68 % 74 % 0 % 1016,4 hPa 0,0 l/m 11,3 km/h (2 Bft) SW 225 0 min 0,0 UV-I -1,3 C -1,3 C 17,2 km/h (3 Bft)
19.02.2012 14:55 4,2 C 5,9 C 3,9 C 3,7 C 1,8 C 0,0 C 67 % 73 % 0 % 1016,4 hPa 0,0 l/m 11,9 km/h (2 Bft) S-SW 202 0 min 0,0 UV-I -1,4 C -1,6 C 15,9 km/h (3 Bft)
19.02.2012 15:00 4,3 C 5,9 C 4,0 C 3,8 C 1,9 C 0,0 C 67 % 72 % 0 % 1017,2 hPa 0,0 l/m 12,1 km/h (2 Bft) SW 225 0 min 0,0 UV-I -1,3 C -1,5 C 15,8 km/h (3 Bft)
19.02.2012 15:12 4,3 C 5,9 C 4,0 C 3,9 C 2,7 C 0,0 C 68 % 73 % 0 % 1017,2 hPa 0,0 l/m 10,6 km/h (2 Bft) N 0 0 min 0,0 UV-I -1,1 C -0,2 C 8,7 km/h (2 Bft)
19.02.2012 15:20 4,4 C 5,9 C 4,2 C 3,8 C 2,7 C 0,0 C 67 % 72 % 0 % 1017,7 hPa 0,0 l/m 11,1 km/h (2 Bft) W-SW 247 0 min 0,0 UV-I -1,2 C -0,3 C 11,1 km/h (2 Bft)
19.02.2012 15:25 4,5 C 5,9 C 4,3 C 3,9 C 2,7 C 0,0 C 66 % 70 % 0 % 1017,7 hPa 0,0 l/m 11,4 km/h (2 Bft) SW 225 0 min 0,0 UV-I -1,3 C -0,4 C 17,2 km/h (3 Bft)
19.02.2012 15:30 4,4 C 5,9 C 4,4 C 4,2 C 2,8 C 0,0 C 66 % 70 % 0 % 1017,7 hPa 0,0 l/m 12,2 km/h (2 Bft) W-SW 247 0 min 0,0 UV-I -1,4 C -0,4 C 18,2 km/h (3 Bft)
19.02.2012 15:35 4,6 C 5,9 C 4,3 C 4,5 C 3,7 C 0,0 C 65 % 70 % 0 % 1017,7 hPa 0,0 l/m 12,4 km/h (3 Bft) W-SW 247 0 min 0,0 UV-I -1,4 C 0,6 C 13,2 km/h (3 Bft)
19.02.2012 15:40 4,7 C 5,9 C 4,3 C 4,4 C 3,7 C 0,0 C 66 % 71 % 0 % 1017,8 hPa 0,0 l/m 11,4 km/h (2 Bft) W 270 0 min 0,0 UV-I -1,1 C 0,8 C 12,1 km/h (2 Bft)
19.02.2012 15:45 4,7 C 5,9 C 4,2 C 4,7 C 3,9 C 0,0 C 65 % 71 % 0 % 1017,8 hPa 0,0 l/m 10,1 km/h (2 Bft) W-SW 247 0 min 0,0 UV-I -1,3 C 1,3 C 7,7 km/h (2 Bft)
19.02.2012 15:50 4,5 C 5,9 C 4,2 C 4,5 C 3,7 C 0,0 C 65 % 71 % 0 % 1017,8 hPa 0,0 l/m 9,3 km/h (2 Bft) W-SW 247 0 min 0,0 UV-I -1,5 C 1,3 C 11,1 km/h (2 Bft)
19.02.2012 15:55 4,5 C 5,9 C 4,3 C 4,4 C 3,6 C 0,0 C 65 % 69 % 0 % 1017,8 hPa 0,0 l/m 9,7 km/h (2 Bft) SW 225 0 min 0,0 UV-I -1,5 C 1,1 C 14,2 km/h (3 Bft)
19.02.2012 16:00 4,7 C 5,9 C 4,3 C 4,7 C 4,3 C 0,0 C 65 % 70 % 0 % 1018,1 hPa 0,0 l/m 9,5 km/h (2 Bft) W-SW 247 0 min 0,0 UV-I -1,3 C 1,9 C 10,5 km/h (2 Bft)
19.02.2012 16:12 4,8 C 5,9 C 4,4 C 5,0 C 4,2 C 0,2 C 62 % 68 % 5 % 1018,1 hPa 0,0 l/m 10,9 km/h (2 Bft) N 0 0 min 0,0 UV-I -1,9 C 1,5 C 13,2 km/h (3 Bft)
19.02.2012 16:20 4,4 C 5,9 C 4,1 C 4,3 C 2,7 C 0,0 C 62 % 67 % 0 % 1018,1 hPa 0,0 l/m 11,3 km/h (2 Bft) W-SW 247 0 min 0,0 UV-I -2,2 C -0,4 C 14,6 km/h (3 Bft)
19.02.2012 16:25 4,4 C 5,9 C 4,0 C 4,0 C 2,3 C 0,0 C 62 % 67 % 0 % 1018,1 hPa 0,0 l/m 10,1 km/h (2 Bft) W-SW 247 0 min 0,0 UV-I -2,2 C -0,6 C 9,2 km/h (2 Bft)
19.02.2012 16:30 4,3 C 5,9 C 4,0 C 3,6 C 2,3 C 0,0 C 63 % 67 % 0 % 1018,1 hPa 0,0 l/m 9,5 km/h (2 Bft) W-SW 247 0 min 0,0 UV-I -2,1 C -0,4 C 8,0 km/h (2 Bft)
19.02.2012 16:35 4,2 C 5,9 C 3,8 C 3,8 C 2,4 C 0,0 C 63 % 68 % 0 % 1018,1 hPa 0,0 l/m 8,0 km/h (2 Bft) SW 225 0 min 0,0 UV-I -2,2 C 0,1 C 8,4 km/h (2 Bft)
19.02.2012 16:40 4,1 C 5,9 C 3,8 C 3,7 C 2,1 C 0,0 C 63 % 68 % 0 % 1018,9 hPa 0,0 l/m 7,9 km/h (2 Bft) W-SW 247 0 min 0,0 UV-I -2,3 C -0,2 C 7,1 km/h (2 Bft)
19.02.2012 16:45 4,0 C 5,9 C 3,6 C 3,3 C 1,9 C 0,0 C 64 % 69 % 0 % 1018,9 hPa 0,0 l/m 7,2 km/h (2 Bft) W-SW 247 0 min 0,0 UV-I -2,2 C -0,3 C 10,1 km/h (2 Bft)
19.02.2012 16:50 4,0 C 5,9 C 3,7 C 3,3 C 2,0 C 0,0 C 65 % 70 % 0 % 1018,9 hPa 0,0 l/m 6,8 km/h (2 Bft) W-SW 247 0 min 0,0 UV-I -2,0 C -0,0 C 7,6 km/h (2 Bft)
19.02.2012 16:55 3,8 C 5,9 C 3,4 C 3,2 C 1,9 C 0,0 C 65 % 71 % 0 % 1018,9 hPa 0,0 l/m 6,6 km/h (2 Bft) SW 225 0 min 0,0 UV-I -2,2 C -0,1 C 5,1 km/h (1 Bft)
19.02.2012 17:00 3,9 C 5,9 C 3,4 C 3,1 C 1,5 C 0,0 C 65 % 71 % 0 % 1019,3 hPa 0,0 l/m 7,1 km/h (2 Bft) SW 225 0 min 0,0 UV-I -2,1 C -0,7 C 12,6 km/h (3 Bft)
19.02.2012 17:05 3,9 C 5,9 C 3,3 C 3,3 C 1,0 C 0,0 C 64 % 69 % 0 % 1019,3 hPa 0,0 l/m 9,0 km/h (2 Bft) W-SW 247 0 min 0,0 UV-I -2,3 C -1,9 C 10,5 km/h (2 Bft)
19.02.2012 17:10 3,7 C 5,9 C 3,3 C 3,1 C 0,9 C 0,0 C 63 % 69 % 0 % 1019,3 hPa 0,0 l/m 9,5 km/h (2 Bft) W-SW 247 0 min 0,0 UV-I -2,7 C -2,1 C 8,2 km/h (2 Bft)
19.02.2012 17:15 3,6 C 5,9 C 3,3 C 3,0 C 0,7 C 0,0 C 62 % 67 % 0 % 1019,3 hPa 0,0 l/m 10,3 km/h (2 Bft) W-SW 247 0 min 0,0 UV-I -3,0 C -2,6 C 14,5 km/h (3 Bft)
19.02.2012 17:20 3,6 C 5,9 C 3,2 C 2,9 C 0,4 C 0,0 C 62 % 67 % 0 % 1019,1 hPa 0,0 l/m 11,4 km/h (2 Bft) W-SW 247 0 min 0,0 UV-I -3,0 C -3,2 C 13,2 km/h (3 Bft)
19.02.2012 17:25 3,6 C 5,9 C 3,2 C 2,8 C 0,3 C 0,0 C 62 % 67 % 0 % 1019,1 hPa 0,0 l/m 10,8 km/h (2 Bft) W-SW 247 0 min 0,0 UV-I -3,0 C -3,2 C 10,6 km/h (2 Bft)
19.02.2012 17:30 3,6 C 5,9 C 3,2 C 2,5 C 0,3 C 0,0 C 62 % 67 % 0 % 1019,1 hPa 0,0 l/m 10,9 km/h (2 Bft) W-SW 247 0 min 0,0 UV-I -3,0 C -3,2 C 10,0 km/h (2 Bft)
19.02.2012 17:35 3,5 C 5,9 C 3,1 C 2,8 C 0,4 C 0,0 C 63 % 68 % 0 % 1019,1 hPa 0,0 l/m 10,6 km/h (2 Bft) W-SW 247 0 min 0,0 UV-I -2,9 C -3,0 C 13,8 km/h (3 Bft)
19.02.2012 17:40 3,5 C 5,9 C 3,1 C 2,8 C 0,6 C 0,0 C 63 % 68 % 0 % 1019,8 hPa 0,0 l/m 10,3 km/h (2 Bft) SW 225 0 min 0,0 UV-I -2,9 C -2,7 C 14,2 km/h (3 Bft)
19.02.2012 17:45 3,5 C 5,9 C 3,0 C 2,5 C 0,6 C 0,0 C 63 % 69 % 0 % 1019,8 hPa 0,0 l/m 10,1 km/h (2 Bft) W-SW 247 0 min 0,0 UV-I -2,9 C -2,6 C 11,9 km/h (2 Bft)
19.02.2012 17:50 3,5 C 5,9 C 3,0 C 2,8 C 0,7 C 0,0 C 64 % 69 % 0 % 1019,8 hPa 0,0 l/m 9,7 km/h (2 Bft) W-SW 247 0 min 0,0 UV-I -2,7 C -2,4 C 11,1 km/h (2 Bft)
19.02.2012 17:55 3,4 C 5,9 C 3,1 C 2,8 C 0,8 C 0,0 C 64 % 70 % 0 % 1019,8 hPa 0,0 l/m 9,0 km/h (2 Bft) W-SW 247 0 min 0,0 UV-I -2,7 C -2,1 C 10,0 km/h (2 Bft)
19.02.2012 18:00 3,4 C 5,9 C 3,1 C 2,5 C 0,8 C 0,0 C 65 % 70 % 0 % 1019,9 hPa 0,0 l/m 8,9 km/h (2 Bft) W-SW 247 0 min 0,0 UV-I -2,5 C -2,1 C 12,6 km/h (3 Bft)
19.02.2012 18:12 3,5 C 6,0 C 3,1 C 2,9 C 0,6 C 0,0 C 65 % 70 % 0 % 1019,9 hPa 0,0 l/m 10,3 km/h (2 Bft) N 0 0 min 0,0 UV-I -2,4 C -2,7 C 13,2 km/h (3 Bft)
19.02.2012 18:20 3,6 C 6,0 C 3,2 C 2,9 C 0,7 C 0,0 C 63 % 68 % 0 % 1019,9 hPa 0,0 l/m 10,6 km/h (2 Bft) W-SW 247 0 min 0,0 UV-I -2,8 C -2,6 C 8,4 km/h (2 Bft)
19.02.2012 18:25 3,6 C 6,0 C 3,2 C 3,0 C 0,9 C 0,0 C 63 % 69 % 0 % 1019,9 hPa 0,0 l/m 9,7 km/h (2 Bft) SW 225 0 min 0,0 UV-I -2,8 C -2,2 C 9,5 km/h (2 Bft)
19.02.2012 18:30 3,6 C 6,0 C 3,2 C 2,7 C 0,9 C 0,0 C 63 % 68 % 0 % 1019,9 hPa 0,0 l/m 9,5 km/h (2 Bft) W-SW 247 0 min 0,0 UV-I -2,8 C -2,1 C 6,4 km/h (2 Bft)
19.02.2012 18:35 3,7 C 6,0 C 3,2 C 3,0 C 0,8 C 0,0 C 63 % 68 % 0 % 1019,9 hPa 0,0 l/m 10,5 km/h (2 Bft) W 270 0 min 0,0 UV-I -2,7 C -2,5 C 13,0 km/h (3 Bft)
19.02.2012 18:40 3,7 C 6,0 C 3,3 C 3,0 C 0,5 C 0,0 C 63 % 68 % 0 % 1021,2 hPa 0,0 l/m 11,7 km/h (2 Bft) W-SW 247 0 min 0,0 UV-I -2,7 C -3,1 C 13,7 km/h (3 Bft)
19.02.2012 18:45 3,6 C 6,0 C 3,2 C 2,9 C 0,6 C 0,0 C 63 % 69 % 0 % 1021,2 hPa 0,0 l/m 11,3 km/h (2 Bft) W-SW 247 0 min 0,0 UV-I -2,8 C -2,9 C 10,9 km/h (2 Bft)
19.02.2012 18:50 3,5 C 6,0 C 3,1 C 2,9 C 0,8 C 0,0 C 64 % 69 % 0 % 1021,2 hPa 0,0 l/m 10,5 km/h (2 Bft) W-SW 247 0 min 0,0 UV-I -2,7 C -2,5 C 10,8 km/h (2 Bft)
19.02.2012 18:55 3,5 C 6,0 C 3,0 C 2,9 C 0,6 C 0,0 C 63 % 69 % 0 % 1021,2 hPa 0,0 l/m 10,5 km/h (2 Bft) SW 225 0 min 0,0 UV-I -2,9 C -2,7 C 18,7 km/h (3 Bft)
19.02.2012 19:00 3,4 C 6,0 C 3,1 C 2,7 C 0,3 C 0,0 C 64 % 69 % 0 % 1021,5 hPa 0,0 l/m 11,7 km/h (2 Bft) SW 225 0 min 0,0 UV-I -2,7 C -3,4 C 8,9 km/h (2 Bft)
19.02.2012 19:11 3,4 C 6,0 C 3,1 C 2,6 C -0,4 C 0,0 C 66 % 71 % 0 % 1021,5 hPa 0,0 l/m 15,8 km/h (3 Bft) N 0 0 min 0,0 UV-I -2,3 C -5,1 C 32,2 km/h (5 Bft)
19.02.2012 19:20 3,2 C 6,0 C 2,9 C 2,4 C -0,5 C 0,0 C 69 % 74 % 0 % 1022,1 hPa 0,0 l/m 14,6 km/h (3 Bft) SW 225 0 min 0,0 UV-I -1,9 C -5,0 C 37,7 km/h (5 Bft)
19.02.2012 19:25 3,2 C 6,0 C 2,8 C 2,4 C -0,1 C 0,0 C 70 % 74 % 0 % 1022,1 hPa 0,0 l/m 11,7 km/h (2 Bft) W-SW 247 0 min 0,0 UV-I -1,7 C -3,9 C 11,3 km/h (2 Bft)
19.02.2012 19:30 3,1 C 6,0 C 2,8 C 2,4 C -0,2 C 0,0 C 71 % 75 % 0 % 1022,1 hPa 0,0 l/m 11,6 km/h (2 Bft) W-SW 247 0 min 0,0 UV-I -1,6 C -4,0 C 12,2 km/h (2 Bft)
19.02.2012 19:35 3,1 C 6,0 C 2,8 C 2,0 C -0,2 C 0,0 C 71 % 75 % 0 % 1022,1 hPa 0,0 l/m 10,9 km/h (2 Bft) W 270 0 min 0,0 UV-I -1,6 C -3,8 C 12,6 km/h (3 Bft)
19.02.2012 19:40 3,0 C 6,0 C 2,7 C 2,2 C -0,5 C 0,0 C 71 % 75 % 0 % 1022,1 hPa 0,0 l/m 12,2 km/h (2 Bft) W-SW 247 0 min 0,0 UV-I -1,7 C -4,5 C 14,5 km/h (3 Bft)
19.02.2012 19:45 2,9 C 6,0 C 2,7 C 2,1 C -0,6 C 0,0 C 72 % 76 % 0 % 1022,1 hPa 0,0 l/m 12,6 km/h (3 Bft) W-SW 247 0 min 0,0 UV-I -1,6 C -4,7 C 13,5 km/h (3 Bft)
19.02.2012 19:50 2,8 C 6,0 C 2,6 C 2,1 C -0,4 C 0,0 C 72 % 76 % 0 % 1022,1 hPa 0,0 l/m 11,7 km/h (2 Bft) W 270 0 min 0,0 UV-I -1,7 C -4,2 C 11,6 km/h (2 Bft)
19.02.2012 19:55 2,8 C 6,0 C 2,7 C 2,1 C -0,6 C 0,0 C 73 % 77 % 0 % 1022,1 hPa 0,0 l/m 12,6 km/h (3 Bft) W-SW 247 0 min 0,0 UV-I -1,5 C -4,7 C 17,5 km/h (3 Bft)
19.02.2012 20:00 2,8 C 6,0 C 2,5 C 2,0 C -0,8 C 0,0 C 73 % 77 % 0 % 1022,8 hPa 0,0 l/m 12,7 km/h (3 Bft) W-SW 247 0 min 0,0 UV-I -1,5 C -4,9 C 13,0 km/h (3 Bft)
19.02.2012 20:13 2,7 C 6,0 C 2,5 C 2,0 C -0,4 C 0,0 C 74 % 78 % 0 % 1022,8 hPa 0,0 l/m 11,1 km/h (2 Bft) N 0 0 min 0,0 UV-I -1,5 C -4,1 C 12,2 km/h (2 Bft)
19.02.2012 20:20 2,7 C 6,0 C 2,4 C 1,9 C -1,1 C 0,0 C 76 % 80 % 0 % 1023,4 hPa 0,0 l/m 13,4 km/h (3 Bft) S 180 0 min 0,0 UV-I -1,1 C -5,4 C 17,5 km/h (3 Bft)
19.02.2012 20:25 2,3 C 6,1 C 2,2 C 1,4 C -1,7 C 0,0 C 79 % 82 % 0 % 1023,4 hPa 0,0 l/m 13,4 km/h (3 Bft) W-SW 247 0 min 0,0 UV-I -1,0 C -6,2 C 8,2 km/h (2 Bft)
19.02.2012 20:30 2,3 C 6,1 C 2,1 C 1,0 C -1,7 C 0,0 C 80 % 83 % 0 % 1023,4 hPa 0,0 l/m 11,7 km/h (2 Bft) S-SW 202 0 min 0,0 UV-I -0,8 C -5,8 C 9,3 km/h (2 Bft)
19.02.2012 20:35 2,0 C 6,1 C 2,0 C 1,2 C -1,3 C 0,0 C 80 % 84 % 0 % 1023,4 hPa 0,0 l/m 9,8 km/h (2 Bft) W-SW 247 0 min 0,0 UV-I -1,1 C -4,8 C 9,7 km/h (2 Bft)
19.02.2012 20:40 2,0 C 6,1 C 2,0 C 1,2 C -1,2 C 0,0 C 80 % 84 % 0 % 1023,4 hPa 0,0 l/m 9,5 km/h (2 Bft) W-SW 247 0 min 0,0 UV-I -1,1 C -4,6 C 10,3 km/h (2 Bft)
19.02.2012 20:45 2,0 C 6,1 C 2,0 C 1,2 C -1,6 C 0,0 C 81 % 84 % 0 % 1023,4 hPa 0,0 l/m 10,8 km/h (2 Bft) W-SW 247 0 min 0,0 UV-I -0,9 C -5,4 C 11,1 km/h (2 Bft)
19.02.2012 20:50 2,1 C 6,1 C 1,9 C 1,2 C -1,7 C 0,0 C 81 % 84 % 0 % 1023,4 hPa 0,0 l/m 11,1 km/h (2 Bft) SW 225 0 min 0,0 UV-I -0,8 C -5,6 C 15,9 km/h (3 Bft)
19.02.2012 20:55 1,8 C 6,1 C 1,8 C 1,0 C -1,6 C 0,0 C 82 % 85 % 0 % 1023,4 hPa 0,0 l/m 10,6 km/h (2 Bft) W-SW 247 0 min 0,0 UV-I -0,9 C -5,4 C 15,4 km/h (3 Bft)
19.02.2012 21:00 1,7 C 6,2 C 1,6 C 1,0 C -1,4 C 0,0 C 83 % 86 % 0 % 1024,7 hPa 0,0 l/m 9,3 km/h (2 Bft) SW 225 0 min 0,0 UV-I -0,9 C -4,8 C 10,1 km/h (2 Bft)
19.02.2012 21:11 1,6 C 6,2 C 1,6 C 0,7 C -1,1 C 0,0 C 83 % 86 % 0 % 1024,7 hPa 0,0 l/m 7,6 km/h (2 Bft) N 0 0 min 0,0 UV-I -1,0 C -3,9 C 9,2 km/h (2 Bft)
19.02.2012 21:20 1,7 C 6,1 C 1,6 C 0,8 C -1,0 C 0,0 C 83 % 86 % 0 % 1024,5 hPa 0,0 l/m 7,2 km/h (2 Bft) S-SW 202 0 min 0,0 UV-I -0,9 C -3,6 C 9,2 km/h (2 Bft)
19.02.2012 21:25 1,6 C 6,1 C 1,6 C 0,8 C -0,8 C 0,0 C 83 % 86 % 0 % 1024,5 hPa 0,0 l/m 6,9 km/h (2 Bft) W-SW 247 0 min 0,0 UV-I -1,0 C -3,3 C 4,7 km/h (1 Bft)
19.02.2012 21:30 1,6 C 6,1 C 1,6 C 0,8 C -0,9 C 0,0 C 83 % 86 % 0 % 1024,5 hPa 0,0 l/m 6,9 km/h (2 Bft) W-SW 247 0 min 0,0 UV-I -1,0 C -3,4 C 8,5 km/h (2 Bft)
19.02.2012 21:35 1,6 C 6,1 C 1,6 C 0,8 C -0,8 C 0,0 C 83 % 86 % 0 % 1024,5 hPa 0,0 l/m 6,8 km/h (2 Bft) W-SW 247 0 min 0,0 UV-I -1,0 C -3,3 C 9,8 km/h (2 Bft)
19.02.2012 21:40 1,6 C 6,1 C 1,5 C 0,7 C -1,2 C 0,0 C 82 % 86 % 0 % 1024,9 hPa 0,0 l/m 7,4 km/h (2 Bft) W-SW 247 0 min 0,0 UV-I -1,1 C -3,9 C 8,2 km/h (2 Bft)
19.02.2012 21:45 1,6 C 6,1 C 1,6 C 0,7 C -1,2 C 0,0 C 82 % 86 % 0 % 1024,9 hPa 0,0 l/m 7,9 km/h (2 Bft) W-SW 247 0 min 0,0 UV-I -1,1 C -4,1 C 9,8 km/h (2 Bft)
19.02.2012 21:50 1,6 C 6,1 C 1,6 C 0,7 C -1,1 C 0,0 C 82 % 86 % 0 % 1024,9 hPa 0,0 l/m 7,6 km/h (2 Bft) W-SW 247 0 min 0,0 UV-I -1,1 C -3,9 C 8,9 km/h (2 Bft)
19.02.2012 21:55 1,6 C 6,1 C 1,5 C 0,8 C -0,9 C 0,0 C 82 % 86 % 0 % 1024,9 hPa 0,0 l/m 6,9 km/h (2 Bft) W-SW 247 0 min 0,0 UV-I -1,1 C -3,4 C 7,1 km/h (2 Bft)
19.02.2012 22:00 1,6 C 6,1 C 1,5 C 0,8 C -0,9 C 0,0 C 82 % 86 % 0 % 1024,9 hPa 0,0 l/m 6,9 km/h (2 Bft) W 270 0 min 0,0 UV-I -1,1 C -3,4 C 7,6 km/h (2 Bft)
19.02.2012 22:11 1,6 C 6,1 C 1,5 C 0,9 C -1,4 C 0,0 C 82 % 85 % 0 % 1024,9 hPa 0,0 l/m 8,2 km/h (2 Bft) N 0 0 min 0,0 UV-I -1,1 C -4,4 C 6,9 km/h (2 Bft)
19.02.2012 22:20 1,6 C 6,1 C 1,5 C 0,8 C -1,7 C 0,0 C 82 % 85 % 0 % 1024,9 hPa 0,0 l/m 8,0 km/h (2 Bft) W-SW 247 0 min 0,0 UV-I -1,1 C -4,7 C 8,5 km/h (2 Bft)
19.02.2012 22:25 1,6 C 6,2 C 1,3 C 0,5 C -1,6 C 0,0 C 81 % 85 % 0 % 1024,9 hPa 0,0 l/m 6,8 km/h (2 Bft) W-SW 247 0 min 0,0 UV-I -1,3 C -4,2 C 6,8 km/h (2 Bft)
19.02.2012 22:30 1,5 C 6,2 C 1,3 C 0,4 C -1,7 C 0,0 C 81 % 85 % 0 % 1024,9 hPa 0,0 l/m 6,4 km/h (2 Bft) W-SW 247 0 min 0,0 UV-I -1,4 C -4,1 C 6,1 km/h (2 Bft)
19.02.2012 22:35 1,4 C 6,2 C 1,2 C 0,3 C -1,9 C 0,0 C 81 % 85 % 0 % 1024,9 hPa 0,0 l/m 6,8 km/h (2 Bft) W-SW 247 0 min 0,0 UV-I -1,5 C -4,5 C 9,2 km/h (2 Bft)
19.02.2012 22:40 1,5 C 6,2 C 1,3 C 0,6 C -2,3 C 0,0 C 81 % 85 % 0 % 1026,1 hPa 0,0 l/m 8,0 km/h (2 Bft) W-SW 247 0 min 0,0 UV-I -1,4 C -5,4 C 10,5 km/h (2 Bft)
19.02.2012 22:45 1,5 C 6,2 C 1,2 C 0,5 C -2,4 C 0,0 C 81 % 85 % 0 % 1026,1 hPa 0,0 l/m 8,4 km/h (2 Bft) W-SW 247 0 min 0,0 UV-I -1,4 C -5,7 C 9,5 km/h (2 Bft)
19.02.2012 22:50 1,3 C 6,2 C 1,1 C 0,3 C -2,6 C 0,0 C 81 % 85 % 0 % 1026,1 hPa 0,0 l/m 8,5 km/h (2 Bft) W-SW 247 0 min 0,0 UV-I -1,6 C -6,0 C 7,7 km/h (2 Bft)
19.02.2012 22:55 1,2 C 6,2 C 1,1 C 0,3 C -2,4 C 0,0 C 81 % 85 % 0 % 1026,1 hPa 0,0 l/m 7,9 km/h (2 Bft) W-SW 247 0 min 0,0 UV-I -1,7 C -5,5 C 12,4 km/h (3 Bft)
19.02.2012 23:00 1,3 C 6,2 C 0,9 C 0,1 C -2,4 C 0,0 C 81 % 85 % 0 % 1026,5 hPa 0,0 l/m 7,6 km/h (2 Bft) W-SW 247 0 min 0,0 UV-I -1,6 C -5,4 C 9,7 km/h (2 Bft)
19.02.2012 23:11 1,1 C 6,2 C 0,9 C -0,1 C -2,5 C 0,0 C 81 % 85 % 0 % 1026,5 hPa 0,0 l/m 7,6 km/h (2 Bft) N 0 0 min 0,0 UV-I -1,8 C -5,5 C 10,9 km/h (2 Bft)
19.02.2012 23:20 1,1 C 6,2 C 0,8 C 0,1 C -2,9 C 0,0 C 82 % 85 % 0 % 1026,9 hPa 0,0 l/m 8,5 km/h (2 Bft) W-SW 247 0 min 0,0 UV-I -1,6 C -6,3 C 8,2 km/h (2 Bft)
19.02.2012 23:25 1,0 C 6,2 C 0,8 C 0,0 C -3,0 C 0,0 C 82 % 85 % 0 % 1026,9 hPa 0,0 l/m 8,4 km/h (2 Bft) SW 225 0 min 0,0 UV-I -1,7 C -6,4 C 8,9 km/h (2 Bft)
19.02.2012 23:30 0,9 C 6,2 C 0,7 C -0,3 C -2,6 C 0,0 C 82 % 85 % 0 % 1026,9 hPa 0,0 l/m 7,1 km/h (2 Bft) O 90 0 min 0,0 UV-I -1,8 C -5,5 C 6,3 km/h (2 Bft)
19.02.2012 23:35 0,8 C 6,2 C 0,7 C -0,3 C -2,6 C 0,0 C 82 % 85 % 0 % 1026,9 hPa 0,0 l/m 6,6 km/h (2 Bft) W-SW 247 0 min 0,0 UV-I -1,9 C -5,3 C 7,4 km/h (2 Bft)
19.02.2012 23:40 0,8 C 6,2 C 0,7 C -0,3 C -2,5 C 0,0 C 82 % 85 % 0 % 1027,2 hPa 0,0 l/m 6,3 km/h (2 Bft) W-SW 247 0 min 0,0 UV-I -1,9 C -5,0 C 8,2 km/h (2 Bft)
19.02.2012 23:45 0,8 C 6,2 C 0,7 C -0,4 C -2,7 C 0,0 C 82 % 85 % 0 % 1027,2 hPa 0,0 l/m 6,8 km/h (2 Bft) W-SW 247 0 min 0,0 UV-I -1,9 C -5,5 C 6,9 km/h (2 Bft)
19.02.2012 23:50 0,9 C 6,2 C 0,7 C -0,3 C -2,7 C 0,0 C 82 % 85 % 0 % 1027,2 hPa 0,0 l/m 6,8 km/h (2 Bft) W-SW 247 0 min 0,0 UV-I -1,8 C -5,5 C 11,1 km/h (2 Bft)
19.02.2012 23:55 0,8 C 6,2 C 0,7 C -0,3 C -2,6 C 0,0 C 82 % 85 % 0 % 1027,2 hPa 0,0 l/m 6,4 km/h (2 Bft) W-SW 247 0 min 0,0 UV-I -1,9 C -5,2 C 6,0 km/h (2 Bft)
_ Min-Zeit 23:35 00:00 23:30 23:45 23:25 00:00 16:12 16:20 00:00 06:40 - 10:45 - - - 00:00 17:15 23:25 10:35
Minimum _ 0,8 C 5,6 C 0,7 C -0,4 C -3,0 C 0,0 C 62 % 67 % 0 % 1008,8 hPa - 1,3 km/h (1 Bft) - - - 0,0 UV-I -3,0 C -6,4 C 0,0 km/h (0 Bft)
_ Max-Zeit 00:30 09:55 00:18 00:30 00:00 10:50 10:15 09:50 10:50 23:40 03:20 19:11 - - 00:00 00:00 01:50 00:00 19:20
Maximum _ 6,0 C 6,4 C 5,6 C 5,6 C 5,2 C 1,7 C 91 % 94 % 45 % 1027,2 hPa 0,7 l/m 15,8 km/h
N (3 Bft)
- - 0 min 0,0 UV-I 3,6 C 4,3 C 37,7 km/h
SW (5 Bft)
Durchschnitt _ 3,7 C 6,0 C 3,3 C 3,3 C 1,8 C 0,1 C 79 % 85 % 1 % 1015,8 hPa #2,7 l/m 8,1 km/h (2 Bft) W-SW - #0 min. 0,0 UV-I 0,4 C -0,4 C 10,3 km/h (2 Bft)
2012 www.wetterstation-wechselburg.de